STARLINK-31605, 59348

Orbit data source: Space-Track

STARLINK-31605, 59348 is a payload satellite owned by SpaceX/Seattle (US) in LEO that was launched on Sun, 31 Mar 2024 UTC via an FALCON 9 launch vehicle from the Air Force Eastern Test Range (AFETR). Payload-class satellites include a variety of spacecraft equipped with specific instruments for various scientific and technological missions. These include communications satellites like Starlink; space stations such as the ISS; scientific satellites like the Hubble; Earth observation satellites from companies like Planet Labs, Umbra, and HawkEye 360; GPS; miniature CubeSats for education and research; and military/defense satellites.

Loading next visibility...
Identifier
59348, 2024-060A
Orbit
LEO
Country
Flag of USUS
Related business
Manufacturer
SpaceX/Seattle
Mission
Operational Commercial Communications
Bus & Motor
STARLINK V2M, Unknown motor
Mass
730 kg wet, ~700 kg dry
Launch date (UTC)
2024-03-31 (2 years ago)
Launch vehicle
FALCON 9
Launch site
Air Force Eastern Test Range (AFETR)
Object type
Payload
Rocket body
Debris
Shape & HBR
Box + 2 Pan, 17.7 m
Radar Cross Section
33.884 m², Large (>1 m²)

Expand to show TLE details & history
Last TLE update: 2 days ago

TLE from 2 days ago
0 STARLINK-31605
1 59348U 24060A   26171.33023339 -.00001283  00000-0 -37125-4 0  9992
2 59348  43.0044  29.5363 0000876 256.4937 103.5817 15.27557318125828
Epoch: 2026-06-20T07:55Z
TLE epoch observation values (Epoch: 2026-06-20T07:55:32.164Z)
Latitude
-0.00004°
Longitude
2.10583°
Altitude
483.034 km
Speed
7.626 km/s
True Right ascension
01h 58m 08s
True Declination
0° 00' 00"
Sunlit
Object was in daylight at epoch
Visualization orbit readout
Latitude
Unknown
Longitude
Unknown
Altitude
Unknown
Speed
Unknown
Apparent Right ascension
Unknown
Apparent Declination
Unknown
Sunlit
N/A
Visualization observer readout
Local Sidereal Time
21:35:58
Azimuth
Unknown
Elevation
Unknown
Doppler factor
Unknown
Orbital elements
Apogee altitude
485.663 km
Perigee altitude
484.46 km
Semi-major axis
6,863.198 km
Eccentricity
0.00009
Inclination
43.0044°
RAAN
29.5363°
Arg. of periapsis
256.4937°
True anomaly
103.59146°
Mean anomaly
103.5817°
Eccentric anomaly
103.58658°
Mean motion
3.81727 °/min
Orbital period
94.31 mins
BSTAR
-0.000037125
Loading maneuver chart data...
Computing Atmospheric mass density...
Loading historical data...
Loading historical data...
Loading historical data...
Loading historical data...
Loading historical data...
Loading historical data...
Loading historical data...

Documentation

Showing up to 5 results
|